TimeAST,TemperatureF,Dew PointF,Humidity,Sea Level PressureIn,VisibilityMPH,Wind Direction,Wind SpeedMPH,Gust SpeedMPH,PrecipitationIn,Events,Conditions,WindDirDegrees,DateUTC
12:00 AM,82.4,73.4,74,29.95,6.2,East,11.5,-,N/A,,Partly Cloudy,80,2013-10-02 04:00:00
1:00 AM,82.4,73.4,74,29.95,6.2,East,9.2,-,N/A,,Partly Cloudy,90,2013-10-02 05:00:00
2:00 AM,83,74,67,29.93,19,ESE,11.5,,,,Scattered Clouds,120,2013-10-02 06:00:00
2:00 AM,82.4,73.4,74,29.92,6.2,East,10.4,-,N/A,,Partly Cloudy,90,2013-10-02 06:00:00
3:00 AM,82.4,73.4,74,29.89,6.2,East,11.5,-,N/A,,Scattered Clouds,90,2013-10-02 07:00:00
4:00 AM,82.4,73.4,74,29.89,6.2,East,10.4,-,N/A,,Partly Cloudy,80,2013-10-02 08:00:00
5:00 AM,83,74,67,29.92,25,East,6.9,,,,Mostly Cloudy,90,2013-10-02 09:00:00
5:00 AM,82.4,73.4,74,29.92,6.2,East,9.2,-,N/A,,Mostly Cloudy,80,2013-10-02 09:00:00
6:00 AM,82.4,73.4,74,29.92,6.2,East,12.7,-,N/A,Rain,Light Rain Showers,80,2013-10-02 10:00:00
7:00 AM,82.4,73.4,74,29.95,6.2,East,10.4,-,N/A,Rain,Light Rain Showers,100,2013-10-02 11:00:00
8:00 AM,84,75,67,29.96,11,East,13.8,,,Rain,Light Rain Showers,100,2013-10-02 12:00:00
8:00 AM,84.2,75.2,74,29.95,6.2,East,12.7,-,N/A,,Mostly Cloudy,80,2013-10-02 12:00:00
9:00 AM,86.0,73.4,66,29.98,6.2,East,13.8,-,N/A,,Scattered Clouds,90,2013-10-02 13:00:00
10:00 AM,87.8,73.4,62,29.98,6.2,East,11.5,-,N/A,,Mostly Cloudy,80,2013-10-02 14:00:00
11:00 AM,88,73,53,29.98,11,East,13.8,,,,Mostly Cloudy,80,2013-10-02 15:00:00
11:00 AM,87.8,73.4,62,29.98,6.2,ENE,12.7,-,N/A,,Mostly Cloudy,70,2013-10-02 15:00:00
11:47 AM,86.0,75.2,70,29.95,2.5,ENE,21.9,34.5,N/A,Rain,Rain Showers,70,2013-10-02 15:47:00
12:00 PM,86.0,75.2,70,29.95,5.6,ENE,13.8,29.9,N/A,Rain,Light Rain Showers,70,2013-10-02 16:00:00
2:00 PM,82,74,70,29.93,11,East,9.2,,,Rain,Light Rain Showers,90,2013-10-02 18:00:00
2:00 PM,82.4,73.4,74,29.92,6.2,East,9.2,-,N/A,Rain,Light Rain Showers,90,2013-10-02 18:00:00
3:00 PM,84.2,77.0,79,29.89,6.2,East,13.8,-,N/A,,Mostly Cloudy,80,2013-10-02 19:00:00
4:00 PM,86.0,73.4,66,29.89,6.2,East,11.5,-,N/A,,Scattered Clouds,90,2013-10-02 20:00:00
5:00 PM,85,73,60,29.91,31,East,11.5,,,,Partly Cloudy,100,2013-10-02 21:00:00
5:00 PM,84.2,73.4,70,29.89,6.2,East,11.5,-,N/A,,Scattered Clouds,100,2013-10-02 21:00:00
6:00 PM,84.2,75.2,74,29.92,6.2,East,9.2,-,N/A,,Scattered Clouds,90,2013-10-02 22:00:00
7:00 PM,84.2,73.4,70,29.92,6.2,ENE,10.4,-,N/A,,Partly Cloudy,70,2013-10-02 23:00:00
8:00 PM,83,74,68,29.94,31,ENE,9.2,,,,Partly Cloudy,70,2013-10-03 00:00:00
8:00 PM,84.2,73.4,70,29.92,6.2,ENE,9.2,-,N/A,,Scattered Clouds,70,2013-10-03 00:00:00
10:00 PM,84.2,75.2,74,29.95,6.2,East,10.4,-,N/A,,Scattered Clouds,90,2013-10-03 02:00:00
11:00 PM,82.4,75.2,79,29.95,6.2,East,12.7,-,N/A,Rain,Light Rain Showers,80,2013-10-03 03:00:00